WXM80 ListenWXM80 Stop

You find our weather info also at:

UK Metoffice

WeatherCloud

Weather Underground

Northeastern Weather Network

AWEKAS

Citizen Weather Observer Program (CWOP)

HAMweather, WeatherForYou, PWS Weather


Weather Underground History page Text

Daily Summary for February 6, 2017 Units:  Metric    English   Both
« Previous Day
Next Day »
Daily Weekly Monthly Yearly Custom
  High: Low: Average:
Temperature: 7.1 °C 2.2 °C 4.5 °C
Dew Point: 1.8 °C -6.9 °C -3.3 °C
Humidity: 87 % 41 % 58 %
Wind Speed: 18.2 km/h 0 km/h 6.9 km/h
Wind Gust: 35.4 km/h - -
Wind:- - West
Pressure: 1019.9 hPa 1011.4 hPa -
Precipitation: 0 mm    
Historical Graphs
 
 
Tabular Data for February 6, 2017
Time Temperature Dew Point Pressure Wind Wind Speed Wind Gust Humidity Rainfall Rate (Hourly)
00:00 5.9 °C -2.7 °C 1011.4 hPa WNW 8.4 km/h 14.8 km/h 54 % 0 mm
00:05 5.9 °C -2.7 °C 1011.4 hPa WNW 12.2 km/h 20.4 km/h 54 % 0 mm
00:10 5.8 °C -2.8 °C 1011.4 hPa West 14.3 km/h 14.8 km/h 54 % 0 mm
00:15 5.8 °C -2.8 °C 1011.7 hPa WSW 10.6 km/h 27.8 km/h 54 % 0 mm
00:20 5.8 °C -2.8 °C 1011.7 hPa WSW 10.3 km/h 16.7 km/h 54 % 0 mm
00:25 5.8 °C -2.8 °C 1011.7 hPa WSW 10.5 km/h 19.3 km/h 54 % 0 mm
00:30 5.7 °C -2.9 °C 1011.7 hPa WNW 14 km/h 20.4 km/h 54 % 0 mm
00:35 5.7 °C -2.9 °C 1011.7 hPa WSW 11.1 km/h 20.4 km/h 54 % 0 mm
00:40 5.7 °C -2.9 °C 1011.7 hPa WSW 13 km/h 25.9 km/h 54 % 0 mm
00:46 5.7 °C -2.7 °C 1011.7 hPa West 4.5 km/h 18.5 km/h 55 % 0 mm
00:52 5.6 °C -2.8 °C 1011.7 hPa WNW 14.8 km/h 18.5 km/h 55 % 0 mm
00:57 5.6 °C -2.8 °C 1011.7 hPa North 6.4 km/h 16.7 km/h 55 % 0 mm
01:02 5.5 °C -2.8 °C 1011.7 hPa WSW 8.7 km/h 17.7 km/h 55 % 0 mm
01:07 5.4 °C -2.7 °C 1011.7 hPa West 5.5 km/h 14.8 km/h 56 % 0 mm
01:12 5.4 °C -2.4 °C 1011.7 hPa West 5.5 km/h 24.1 km/h 57 % 0 mm
01:17 5.4 °C -2.4 °C 1011.7 hPa NW 10 km/h 16.7 km/h 57 % 0 mm
01:22 5.3 °C -2.5 °C 1011.7 hPa South 7.4 km/h 14.8 km/h 57 % 0 mm
01:27 5.3 °C -2.3 °C 1012.1 hPa NW 6 km/h 13 km/h 58 % 0 mm
01:32 5.2 °C -2.4 °C 1012.1 hPa WNW 5.3 km/h 14.8 km/h 58 % 0 mm
01:37 5.2 °C -2.4 °C 1012.1 hPa West 6.4 km/h 16.7 km/h 58 % 0 mm
01:42 5.2 °C -2.7 °C 1012.1 hPa West 5.6 km/h 11.1 km/h 57 % 0 mm
01:47 5.2 °C -2.9 °C 1012.1 hPa West 9.7 km/h 18.5 km/h 56 % 0 mm
01:52 5.1 °C -2.7 °C 1012.1 hPa West 6.1 km/h 13 km/h 57 % 0 mm
01:57 5.1 °C -2.8 °C 1012.4 hPa NNW 5.3 km/h 11.1 km/h 57 % 0 mm
02:02 5.1 °C -2.8 °C 1012.4 hPa WSW 12.6 km/h 22.2 km/h 57 % 0 mm
02:07 5 °C -2.8 °C 1012.4 hPa WNW 11.4 km/h 22.5 km/h 57 % 0 mm
02:12 4.9 °C -2.9 °C 1012.4 hPa WNW 12.7 km/h 18.5 km/h 57 % 0 mm
02:17 4.9 °C -3.1 °C 1012.4 hPa West 15 km/h 29.6 km/h 56 % 0 mm
02:22 4.9 °C -3.2 °C 1012.8 hPa WNW 14.5 km/h 22.2 km/h 56 % 0 mm
02:27 4.8 °C -3.2 °C 1012.8 hPa West 15.4 km/h 24.1 km/h 56 % 0 mm
02:32 4.8 °C -3.3 °C 1013.1 hPa West 15 km/h 31.5 km/h 56 % 0 mm
02:37 4.7 °C -3.3 °C 1013.1 hPa NW 15.6 km/h 22.5 km/h 56 % 0 mm
02:42 4.7 °C -3.6 °C 1013.1 hPa WNW 16.3 km/h 20.4 km/h 55 % 0 mm
02:47 4.7 °C -3.6 °C 1013.1 hPa WNW 14 km/h 22.2 km/h 55 % 0 mm
02:52 4.6 °C -3.9 °C 1013.1 hPa NW 18.2 km/h 35.4 km/h 54 % 0 mm
02:57 4.5 °C -4 °C 1013.1 hPa NW 12.1 km/h 25.9 km/h 54 % 0 mm
03:03 4.4 °C -3.8 °C 1013.4 hPa WNW 5 km/h 16.7 km/h 55 % 0 mm
03:08 4.4 °C -3.6 °C 1013.8 hPa WSW 15.6 km/h 31.5 km/h 56 % 0 mm
03:13 4.3 °C -3.7 °C 1013.8 hPa WNW 9 km/h 25.9 km/h 56 % 0 mm
03:18 4.3 °C -4.2 °C 1014.1 hPa NNE 17.9 km/h 31.5 km/h 54 % 0 mm
03:23 4.2 °C -4.3 °C 1014.1 hPa WNW 10.8 km/h 24.1 km/h 54 % 0 mm
03:28 4.2 °C -4.6 °C 1014.4 hPa WNW 14.3 km/h 27.8 km/h 53 % 0 mm
03:33 4.2 °C -4.6 °C 1014.4 hPa West 14.6 km/h 27.4 km/h 53 % 0 mm
03:38 4.1 °C -4.9 °C 1014.4 hPa WNW 15.8 km/h 29.6 km/h 52 % 0 mm
03:43 4.1 °C -4.7 °C 1014.4 hPa WNW 10.1 km/h 27.8 km/h 53 % 0 mm
03:48 4 °C -4.7 °C 1014.4 hPa WNW 14 km/h 31.5 km/h 53 % 0 mm
03:53 4 °C -5 °C 1014.4 hPa NW 10.6 km/h 24.1 km/h 52 % 0 mm
03:58 4 °C -5 °C 1014.8 hPa West 8.4 km/h 22.2 km/h 52 % 0 mm
04:03 4 °C -4.7 °C 1014.4 hPa WNW 9.7 km/h 14.8 km/h 53 % 0 mm
04:08 4 °C -5 °C 1014.4 hPa NW 12.1 km/h 20.9 km/h 52 % 0 mm
04:13 4 °C -4.7 °C 1014.8 hPa WNW 5.5 km/h 13 km/h 53 % 0 mm
04:18 4 °C -4.7 °C 1014.8 hPa West 7.1 km/h 16.7 km/h 53 % 0 mm
04:23 4 °C -4.5 °C 1014.8 hPa West 10.9 km/h 19.3 km/h 54 % 0 mm
04:28 3.9 °C -4.8 °C 1014.8 hPa West 10.6 km/h 29.6 km/h 53 % 0 mm
04:33 4 °C -4.5 °C 1014.8 hPa West 6.3 km/h 16.7 km/h 54 % 0 mm
04:38 3.9 °C -4.6 °C 1014.8 hPa WNW 10.3 km/h 24.1 km/h 54 % 0 mm
04:43 3.9 °C -4.3 °C 1014.8 hPa NW 8.7 km/h 18.5 km/h 55 % 0 mm
04:48 3.9 °C -4.3 °C 1014.8 hPa WNW 8 km/h 22.5 km/h 55 % 0 mm
04:53 3.8 °C -4.4 °C 1015.1 hPa WNW 7.7 km/h 18.5 km/h 55 % 0 mm
04:58 3.8 °C -4.2 °C 1015.1 hPa NW 9.3 km/h 16.7 km/h 56 % 0 mm
05:03 3.8 °C -4.2 °C 1015.1 hPa West 6 km/h 20.4 km/h 56 % 0 mm
05:08 3.8 °C -4.2 °C 1015.1 hPa WNW 7.6 km/h 11.3 km/h 56 % 0 mm
05:13 3.7 °C -4.3 °C 1015.1 hPa WSW 9.5 km/h 14.8 km/h 56 % 0 mm
05:19 3.7 °C -4.3 °C 1015.1 hPa West 10 km/h 22.2 km/h 56 % 0 mm
05:24 3.7 °C -4.3 °C 1015.1 hPa West 11.1 km/h 18.5 km/h 56 % 0 mm
05:29 3.6 °C -4.1 °C 1015.5 hPa WSW 8 km/h 16.7 km/h 57 % 0 mm
05:34 3.6 °C -4.2 °C 1015.5 hPa NW 8 km/h 13 km/h 57 % 0 mm
05:39 3.5 °C -4.2 °C 1015.5 hPa West 11.6 km/h 18.5 km/h 57 % 0 mm
05:44 3.5 °C -4 °C 1015.8 hPa West 11.1 km/h 18.5 km/h 58 % 0 mm
05:49 3.4 °C -4.1 °C 1015.8 hPa WNW 12.7 km/h 18.5 km/h 58 % 0 mm
05:54 3.4 °C -3.6 °C 1016.1 hPa NNW 5.5 km/h 17.7 km/h 60 % 0 mm
05:59 3.4 °C -3 °C 1016.1 hPa NW 11.9 km/h 18.5 km/h 63 % 0 mm
06:04 3.3 °C -3.3 °C 1016.5 hPa WNW 12.4 km/h 20.4 km/h 62 % 0 mm
06:09 3.3 °C -3.1 °C 1016.5 hPa NW 8.7 km/h 18.5 km/h 63 % 0 mm
06:14 3.2 °C -2.9 °C 1016.8 hPa NNW 6.1 km/h 11.1 km/h 64 % 0 mm
06:19 3.2 °C -2.7 °C 1016.8 hPa NW 9.2 km/h 14.8 km/h 65 % 0 mm
06:24 3.2 °C -2.8 °C 1016.8 hPa WNW 10.6 km/h 18.5 km/h 65 % 0 mm
06:29 3.1 °C -3.1 °C 1016.8 hPa NW 11.6 km/h 22.2 km/h 64 % 0 mm
06:34 3 °C -3.4 °C 1016.8 hPa WNW 14.2 km/h 25.9 km/h 63 % 0 mm
06:39 2.9 °C -4.3 °C 1016.8 hPa WNW 16.6 km/h 25.9 km/h 59 % 0 mm
06:44 2.8 °C -4.6 °C 1016.8 hPa WSW 10.9 km/h 22.2 km/h 58 % 0 mm
06:49 2.8 °C -4.7 °C 1017.2 hPa NW 16.1 km/h 16.7 km/h 58 % 0 mm
06:54 2.7 °C -5.7 °C 1017.2 hPa West 15.9 km/h 29.6 km/h 54 % 0 mm
06:59 2.6 °C -5.8 °C 1017.2 hPa NNW 10.9 km/h 25.9 km/h 54 % 0 mm
07:04 2.4 °C -5.9 °C 1017.5 hPa WNW 9.7 km/h 19.3 km/h 54 % 0 mm
07:09 2.4 °C -5.7 °C 1017.5 hPa NW 9.2 km/h 16.7 km/h 55 % 0 mm
07:14 2.3 °C -6.1 °C 1017.5 hPa NW 10.5 km/h 20.9 km/h 54 % 0 mm
07:20 2.3 °C -5.8 °C 1017.5 hPa WNW 7.7 km/h 17.7 km/h 55 % 0 mm
07:25 2.2 °C -6.2 °C 1017.2 hPa NW 8 km/h 18.5 km/h 54 % 0 mm
07:30 2.2 °C -5.9 °C 1017.5 hPa NW 9.5 km/h 18.5 km/h 55 % 0 mm
07:35 2.2 °C -6.2 °C 1017.5 hPa WNW 7.9 km/h 14.8 km/h 54 % 0 mm
07:40 2.2 °C -6.2 °C 1017.8 hPa West 6.3 km/h 14.8 km/h 54 % 0 mm
07:45 2.2 °C -6.2 °C 1017.8 hPa WNW 6 km/h 13 km/h 54 % 0 mm
07:50 2.2 °C -6.2 °C 1018.2 hPa NW 11.7 km/h 18.5 km/h 54 % 0 mm
07:55 2.2 °C -6.4 °C 1018.2 hPa West 7.9 km/h 18.5 km/h 53 % 0 mm
08:00 2.2 °C -6.4 °C 1018.2 hPa WNW 5.5 km/h 18.5 km/h 53 % 0 mm
08:05 2.2 °C -6.4 °C 1018.2 hPa WNW 6.4 km/h 14.5 km/h 53 % 0 mm
08:10 2.3 °C -6.6 °C 1018.5 hPa West 7.9 km/h 13 km/h 52 % 0 mm
08:15 2.3 °C -6.6 °C 1018.5 hPa West 9 km/h 13 km/h 52 % 0 mm
08:20 2.4 °C -6.4 °C 1018.5 hPa WSW 8.5 km/h 14.8 km/h 52 % 0 mm
08:25 2.6 °C -6.3 °C 1018.5 hPa WNW 6.4 km/h 13 km/h 52 % 0 mm
08:30 2.6 °C -6.5 °C 1018.5 hPa West 9.7 km/h 19.3 km/h 51 % 0 mm
08:35 2.7 °C -6.7 °C 1018.5 hPa West 5.3 km/h 18.5 km/h 50 % 0 mm
08:40 2.7 °C -6.7 °C 1018.5 hPa NW 10.9 km/h 16.7 km/h 50 % 0 mm
08:45 2.8 °C -6.6 °C 1018.8 hPa WNW 5.6 km/h 13 km/h 50 % 0 mm
08:50 2.9 °C -6.5 °C 1019.2 hPa West 10.6 km/h 18.5 km/h 50 % 0 mm
08:55 3.1 °C -6.9 °C 1019.5 hPa WNW 17.5 km/h 31.5 km/h 48 % 0 mm
09:00 3.2 °C -6.6 °C 1019.5 hPa West 11.9 km/h 17.7 km/h 49 % 0 mm
09:05 3.3 °C -6.7 °C 1019.5 hPa WNW 14.6 km/h 20.4 km/h 48 % 0 mm
09:10 3.4 °C -6.6 °C 1019.5 hPa West 10.8 km/h 29.6 km/h 48 % 0 mm
09:15 3.4 °C -6.3 °C 1019.5 hPa NW 14.6 km/h 25.9 km/h 49 % 0 mm
09:21 3.6 °C -6.4 °C 1019.5 hPa WNW 17.4 km/h 31.5 km/h 48 % 0 mm
09:26 3.6 °C -6.4 °C 1019.5 hPa NW 12.1 km/h 29.6 km/h 48 % 0 mm
09:31 3.6 °C -6.2 °C 1019.5 hPa WNW 14.3 km/h 20.4 km/h 49 % 0 mm
09:36 3.6 °C -6.1 °C 1019.5 hPa NW 11.3 km/h 27.8 km/h 49 % 0 mm
09:41 3.7 °C -6.3 °C 1019.5 hPa NW 11.7 km/h 24.1 km/h 48 % 0 mm
09:46 3.8 °C -6.2 °C 1019.5 hPa West 13 km/h 18.5 km/h 48 % 0 mm
09:51 4.1 °C -5.7 °C 1019.5 hPa NW 6.9 km/h 16.7 km/h 49 % 0 mm
09:56 4.2 °C -6.4 °C 1019.5 hPa WNW 7.2 km/h 20.4 km/h 46 % 0 mm
10:01 4.4 °C -6.2 °C 1019.5 hPa West 10.8 km/h 24.1 km/h 46 % 0 mm
10:06 4.5 °C -6.1 °C 1019.9 hPa NW 13.2 km/h 20.4 km/h 46 % 0 mm
10:11 4.6 °C -6.1 °C 1019.5 hPa WNW 10 km/h 18.5 km/h 46 % 0 mm
10:16 4.6 °C -6.1 °C 1019.9 hPa NNW 6.9 km/h 18.5 km/h 46 % 0 mm
10:18 4.7 °C -5.7 °C 1019.5 hPa WNW 5.8 km/h 13 km/h 47 % 0 mm
10:23 4.8 °C -5.8 °C 1019.9 hPa West 10.6 km/h 18.5 km/h 46 % 0 mm
10:28 4.9 °C -5.7 °C 1019.9 hPa NNW 5.5 km/h 14.8 km/h 46 % 0 mm
10:33 5.1 °C -5.6 °C 1019.9 hPa NW 13.8 km/h 27.8 km/h 46 % 0 mm
10:38 5.1 °C -5.6 °C 1019.9 hPa NW 8.9 km/h 19.3 km/h 46 % 0 mm
10:43 5.1 °C -5.6 °C 1019.9 hPa WNW 12.1 km/h 18.5 km/h 46 % 0 mm
10:48 5.2 °C -5.5 °C 1019.9 hPa West 11.1 km/h 19.3 km/h 46 % 0 mm
10:53 5.3 °C -5.7 °C 1019.5 hPa WNW 9.5 km/h 19.3 km/h 45 % 0 mm
10:58 5.3 °C -5.7 °C 1019.5 hPa WSW 11.7 km/h 22.2 km/h 45 % 0 mm
11:03 5.3 °C -5.7 °C 1019.9 hPa NNW 8 km/h 16.7 km/h 45 % 0 mm
11:08 5.3 °C -5.7 °C 1019.9 hPa SW 8.9 km/h 17.7 km/h 45 % 0 mm
11:13 5.2 °C -6.1 °C 1019.5 hPa WSW 12.1 km/h 22.2 km/h 44 % 0 mm
11:18 5.3 °C -5.4 °C 1019.5 hPa NW 5.3 km/h 8 km/h 46 % 0 mm
11:23 5.4 °C -5 °C 1019.5 hPa WNW 8 km/h 19.3 km/h 47 % 0 mm
11:28 5.6 °C -5.4 °C 1019.5 hPa NW 11.3 km/h 20.9 km/h 45 % 0 mm
11:33 5.6 °C -5.8 °C 1019.5 hPa NNW 6 km/h 14.8 km/h 44 % 0 mm
11:38 5.7 °C -5.4 °C 1019.2 hPa NW 9.7 km/h 19.3 km/h 45 % 0 mm
11:43 5.6 °C -5.7 °C 1019.2 hPa WNW 11.3 km/h 25.7 km/h 44 % 0 mm
11:48 5.5 °C -6.1 °C 1019.5 hPa WNW 8 km/h 19.3 km/h 43 % 0 mm
11:53 5.4 °C -5.3 °C 1019.2 hPa West 8.5 km/h 14.8 km/h 46 % 0 mm
11:58 5.4 °C -5 °C 1019.2 hPa WNW 8.9 km/h 17.7 km/h 47 % 0 mm
12:03 5.4 °C -5.6 °C 1019.2 hPa NW 8 km/h 19.3 km/h 45 % 0 mm
12:08 5.4 °C -5.6 °C 1018.8 hPa NW 8 km/h 14.5 km/h 45 % 0 mm
12:13 5.5 °C -5.5 °C 1018.8 hPa NW 9.7 km/h 20.9 km/h 45 % 0 mm
12:18 5.5 °C -6.1 °C 1018.8 hPa WNW 11.3 km/h 19.3 km/h 43 % 0 mm
12:23 5.6 °C -5.4 °C 1018.5 hPa WNW 9.7 km/h 16.1 km/h 45 % 0 mm
12:28 5.7 °C -5.1 °C 1018.5 hPa NW 4.8 km/h 19.3 km/h 46 % 0 mm
12:33 5.8 °C -4.9 °C 1018.5 hPa NW 9.7 km/h 14.5 km/h 46 % 0 mm
12:38 5.9 °C -4.9 °C 1018.5 hPa WNW 3.2 km/h 11.3 km/h 46 % 0 mm
12:43 6 °C -4.8 °C 1018.5 hPa WNW 9.7 km/h 19.3 km/h 46 % 0 mm
12:48 5.9 °C -5.4 °C 1018.5 hPa WNW 11.3 km/h 19.3 km/h 44 % 0 mm
12:53 5.9 °C -5.1 °C 1018.5 hPa WNW 4.8 km/h 19.3 km/h 45 % 0 mm
12:58 6 °C -5.1 °C 1018.5 hPa NNW 5.3 km/h 11.3 km/h 45 % 0 mm
13:03 6.2 °C -4.9 °C 1018.5 hPa NW 8 km/h 14.5 km/h 45 % 0 mm
13:08 6.3 °C -4.8 °C 1018.5 hPa NW 8 km/h 11.3 km/h 45 % 0 mm
13:13 6.4 °C -4.7 °C 1018.5 hPa NW 8 km/h 11.3 km/h 45 % 0 mm
13:18 6.4 °C -4.7 °C 1018.2 hPa NW 8 km/h 12.9 km/h 45 % 0 mm
13:23 6.6 °C -5.4 °C 1018.5 hPa NW 11.3 km/h 19.3 km/h 42 % 0 mm
13:28 6.5 °C -5.5 °C 1018.2 hPa WNW 9.7 km/h 14.5 km/h 42 % 0 mm
13:33 6.4 °C -5.6 °C 1018.2 hPa WNW 8 km/h 16.1 km/h 42 % 0 mm
13:38 6.3 °C -5.7 °C 1018.2 hPa WNW 1.6 km/h 12.9 km/h 42 % 0 mm
13:43 6.3 °C -5.4 °C 1018.2 hPa WNW 4.8 km/h 14.5 km/h 43 % 0 mm
13:48 6.4 °C -5.3 °C 1018.2 hPa WNW 3.2 km/h 14.5 km/h 43 % 0 mm
13:53 6.5 °C -5.5 °C 1018.2 hPa WNW 9.7 km/h 19.3 km/h 42 % 0 mm
13:58 6.7 °C -5.3 °C 1018.2 hPa WNW 3.9 km/h 9.7 km/h 42 % 0 mm
14:03 6.7 °C -5.7 °C 1017.8 hPa NW 6.8 km/h 13 km/h 41 % 0 mm
14:08 6.7 °C -5.6 °C 1017.5 hPa SW 6 km/h 11.1 km/h 41 % 0 mm
14:13 6.8 °C -5.6 °C 1017.8 hPa WNW 2.7 km/h 9.3 km/h 41 % 0 mm
14:19 6.8 °C -5.2 °C 1017.8 hPa SW 5.6 km/h 8 km/h 42 % 0 mm
14:24 6.9 °C -5.4 °C 1017.8 hPa West 5 km/h 9.3 km/h 41 % 0 mm
14:29 7 °C -5.1 °C 1017.5 hPa SW 5.1 km/h 5.6 km/h 42 % 0 mm
14:34 7.1 °C -5.3 °C 1017.5 hPa West 0.5 km/h 5.6 km/h 41 % 0 mm
14:39 6.9 °C -5.4 °C 1017.8 hPa WSW 6.3 km/h 9.3 km/h 41 % 0 mm
14:44 6.9 °C -5.2 °C 1017.8 hPa West 4.7 km/h 11.1 km/h 42 % 0 mm
14:49 6.8 °C -5.2 °C 1017.8 hPa WSW 2.4 km/h 7.4 km/h 42 % 0 mm
14:54 6.7 °C -5.3 °C 1017.8 hPa West 2.3 km/h 5.6 km/h 42 % 0 mm
14:59 6.7 °C -5.1 °C 1017.8 hPa WNW 1.1 km/h 3.7 km/h 43 % 0 mm
15:04 6.6 °C -5.1 °C 1017.8 hPa NW 1.8 km/h 4.8 km/h 43 % 0 mm
15:09 6.4 °C -4.3 °C 1017.5 hPa North 2.9 km/h 5.6 km/h 46 % 0 mm
15:14 6.4 °C -4.4 °C 1017.5 hPa North 4 km/h 8 km/h 46 % 0 mm
15:19 6.3 °C -4.8 °C 1017.5 hPa NNW 3.2 km/h 3.7 km/h 45 % 0 mm
15:24 6.3 °C -4.8 °C 1017.5 hPa NNW 2.6 km/h 5.6 km/h 45 % 0 mm
15:29 6.3 °C -4.8 °C 1017.5 hPa Calm   5.6 km/h 45 % 0 mm
15:34 6.2 °C -4.8 °C 1017.5 hPa WNW 3.4 km/h 3.7 km/h 45 % 0 mm
15:39 6.2 °C -4.8 °C 1017.2 hPa WNW 3.1 km/h 5.6 km/h 45 % 0 mm
15:44 6.3 °C -4.8 °C 1017.2 hPa SW 3.2 km/h 5.6 km/h 45 % 0 mm
15:49 6.3 °C -5.1 °C 1017.2 hPa WSW 3.5 km/h 6.4 km/h 44 % 0 mm
15:54 6.3 °C -4.8 °C 1017.2 hPa WSW 3.5 km/h 5.6 km/h 45 % 0 mm
15:59 6.4 °C -4.7 °C 1017.5 hPa Calm   5.6 km/h 45 % 0 mm
16:04 6.4 °C -4.3 °C 1017.2 hPa NW 0.5 km/h 1.9 km/h 46 % 0 mm
16:09 6.4 °C -4.7 °C 1017.2 hPa Calm   1.9 km/h 45 % 0 mm
16:14 6.5 °C -4.6 °C 1017.5 hPa WNW 2.7 km/h 5.6 km/h 45 % 0 mm
16:19 6.5 °C -4.6 °C 1017.5 hPa WNW 3.1 km/h 5.6 km/h 45 % 0 mm
16:25 6.5 °C -4.3 °C 1017.5 hPa Calm     46 % 0 mm
16:30 6.4 °C -3.5 °C 1017.2 hPa WNW 0.2 km/h 1.9 km/h 49 % 0 mm
16:35 6.4 °C -3.8 °C 1017.2 hPa Calm     48 % 0 mm
16:40 6.3 °C -3.7 °C 1017.2 hPa Calm     49 % 0 mm
16:45 6.2 °C -3.2 °C 1017.2 hPa WNW 0.5 km/h 1.9 km/h 51 % 0 mm
16:50 6.1 °C -3.6 °C 1017.2 hPa Calm     50 % 0 mm
16:55 5.9 °C -3.7 °C 1017.2 hPa Calm     50 % 0 mm
17:00 5.8 °C -3.8 °C 1017.2 hPa Calm     50 % 0 mm
17:05 5.7 °C -3.9 °C 1017.2 hPa Calm     50 % 0 mm
17:10 5.6 °C -4 °C 1017.2 hPa Calm     50 % 0 mm
17:15 5.5 °C -4.1 °C 1017.2 hPa Calm     50 % 0 mm
17:20 5.4 °C -4.2 °C 1017.2 hPa Calm     50 % 0 mm
17:25 5.3 °C -4.3 °C 1017.2 hPa Calm     50 % 0 mm
17:30 5.1 °C -3.7 °C 1017.2 hPa SW 3.1 km/h 5.6 km/h 53 % 0 mm
17:35 4.8 °C -3.1 °C 1017.2 hPa SSW 5.8 km/h 11.1 km/h 57 % 0 mm
17:40 4.6 °C -1.8 °C 1017.5 hPa SSW 11.6 km/h 16.7 km/h 63 % 0 mm
17:43 4.6 °C -1.6 °C 1017.8 hPa SSE 7.2 km/h 13 km/h 64 % 0 mm
17:48 4.6 °C -1.4 °C 1017.8 hPa South 6.9 km/h 14.5 km/h 65 % 0 mm
17:53 4.6 °C -1.4 °C 1017.8 hPa SSW 5 km/h 7.4 km/h 65 % 0 mm
17:58 4.6 °C -1.4 °C 1017.8 hPa SSW 3.9 km/h 9.3 km/h 65 % 0 mm
18:03 4.5 °C -1.5 °C 1017.8 hPa South 3.9 km/h 8 km/h 65 % 0 mm
18:08 4.5 °C -1.5 °C 1017.8 hPa SSW 2.4 km/h 5.6 km/h 65 % 0 mm
18:13 4.4 °C -1.3 °C 1017.8 hPa South 4 km/h 7.4 km/h 66 % 0 mm
18:18 4.4 °C -1.4 °C 1017.5 hPa South 4.3 km/h 9.7 km/h 66 % 0 mm
18:23 4.3 °C -1.4 °C 1017.5 hPa SSW 1.1 km/h 5.6 km/h 66 % 0 mm
18:28 4.3 °C -1.3 °C 1017.8 hPa SE 2.1 km/h 5.6 km/h 67 % 0 mm
18:33 4.2 °C -1.2 °C 1017.5 hPa South 1.8 km/h 9.3 km/h 68 % 0 mm
18:38 4.1 °C -1.1 °C 1017.5 hPa South 1.3 km/h 3.7 km/h 69 % 0 mm
18:43 4.1 °C -1.1 °C 1017.5 hPa South 4.7 km/h 7.4 km/h 69 % 0 mm
18:48 4 °C -1 °C 1017.8 hPa SE 1.4 km/h 5.6 km/h 70 % 0 mm
18:53 3.9 °C -1.1 °C 1017.8 hPa SSW 2.1 km/h 7.4 km/h 70 % 0 mm
18:58 3.9 °C -1.1 °C 1017.8 hPa SSW 3.9 km/h 6.4 km/h 70 % 0 mm
19:00 3.8 °C -1.2 °C 1017.8 hPa SSW 2.4 km/h 7.4 km/h 70 % 0 mm
19:06 3.8 °C -1 °C 1017.8 hPa SSW 1.8 km/h 7.4 km/h 71 % 0 mm
19:11 3.7 °C -1.1 °C 1017.8 hPa SSW 2.4 km/h 5.6 km/h 71 % 0 mm
19:16 3.7 °C -1.1 °C 1017.8 hPa South 2.9 km/h 5.6 km/h 71 % 0 mm
19:21 3.6 °C -0.9 °C 1017.8 hPa SSE 1.1 km/h 5.6 km/h 72 % 0 mm
19:26 3.6 °C -0.8 °C 1017.8 hPa South 1.6 km/h 5.6 km/h 73 % 0 mm
19:31 3.5 °C -0.9 °C 1017.8 hPa South 4.7 km/h 11.1 km/h 73 % 0 mm
19:36 3.4 °C -0.8 °C 1017.5 hPa SSE 3.2 km/h 7.4 km/h 74 % 0 mm
19:41 3.4 °C -0.6 °C 1017.8 hPa South 2.6 km/h 7.4 km/h 75 % 0 mm
19:46 3.4 °C -0.4 °C 1017.5 hPa South 3.5 km/h 7.4 km/h 76 % 0 mm
19:51 3.4 °C -0.4 °C 1017.5 hPa SSW 1.8 km/h 5.6 km/h 76 % 0 mm
19:56 3.4 °C -0.3 °C 1017.5 hPa South 4.2 km/h 7.4 km/h 77 % 0 mm
20:01 3.4 °C -0.3 °C 1017.5 hPa South 5.8 km/h 7.4 km/h 77 % 0 mm
20:06 3.4 °C -0.1 °C 1017.2 hPa South 6.8 km/h 11.1 km/h 78 % 0 mm
20:11 3.4 °C -0.1 °C 1017.2 hPa South 4.8 km/h 9.3 km/h 78 % 0 mm
20:16 3.4 °C 0.1 °C 1017.2 hPa South 6.4 km/h 11.1 km/h 79 % 0 mm
20:21 3.4 °C 0.3 °C 1017.2 hPa South 9.3 km/h 14.8 km/h 80 % 0 mm
20:24 3.4 °C 0.3 °C 1017.2 hPa SSW 3.1 km/h 11.1 km/h 80 % 0 mm
20:29 3.5 °C 0.6 °C 1017.2 hPa South 4 km/h 11.1 km/h 81 % 0 mm
20:35 3.5 °C 0.6 °C 1017.2 hPa SSE 3.7 km/h 11.1 km/h 81 % 0 mm
20:40 3.6 °C 0.6 °C 1017.2 hPa SSE 6 km/h 9.3 km/h 81 % 0 mm
20:45 3.6 °C 0.8 °C 1017.2 hPa South 2.3 km/h 5.6 km/h 82 % 0 mm
20:50 3.6 °C 0.8 °C 1016.8 hPa South 4.5 km/h 9.3 km/h 82 % 0 mm
20:55 3.7 °C 1.1 °C 1016.8 hPa SSW 4 km/h 8 km/h 83 % 0 mm
21:00 3.7 °C 1.1 °C 1016.8 hPa South 2.4 km/h 4.8 km/h 83 % 0 mm
21:05 3.7 °C 1.1 °C 1016.8 hPa South 4.5 km/h 7.4 km/h 83 % 0 mm
21:10 3.7 °C 1.1 °C 1016.8 hPa South 4.7 km/h 9.3 km/h 83 % 0 mm
21:15 3.7 °C 1.1 °C 1016.5 hPa South 3.5 km/h 5.6 km/h 83 % 0 mm
21:20 3.7 °C 1.2 °C 1016.5 hPa South 5.5 km/h 8 km/h 84 % 0 mm
21:25 3.7 °C 1.2 °C 1016.5 hPa South 3.9 km/h 9.7 km/h 84 % 0 mm
21:30 3.7 °C 1.3 °C 1016.5 hPa South 6.1 km/h 11.1 km/h 84 % 0 mm
21:35 3.7 °C 1.4 °C 1016.5 hPa SSW 5.1 km/h 11.1 km/h 85 % 0 mm
21:40 3.7 °C 1.4 °C 1016.5 hPa South 6.3 km/h 9.3 km/h 85 % 0 mm
21:45 3.7 °C 1.4 °C 1016.5 hPa South 7.2 km/h 9.3 km/h 85 % 0 mm
21:50 3.7 °C 1.6 °C 1016.5 hPa SSW 2.3 km/h 7.4 km/h 86 % 0 mm
21:55 3.8 °C 1.7 °C 1016.5 hPa South 6.8 km/h 13 km/h 86 % 0 mm
22:00 3.8 °C 1.7 °C 1016.5 hPa South 4.5 km/h 11.1 km/h 86 % 0 mm
22:05 3.8 °C 1.7 °C 1016.1 hPa SSW 6.4 km/h 9.3 km/h 86 % 0 mm
22:10 3.7 °C 1.6 °C 1016.1 hPa South 4.7 km/h 9.3 km/h 86 % 0 mm
22:15 3.7 °C 1.8 °C 1016.1 hPa South 6.6 km/h 7.4 km/h 87 % 0 mm
22:20 3.7 °C 1.8 °C 1016.1 hPa South 3.7 km/h 5.6 km/h 87 % 0 mm
22:26 3.7 °C 1.8 °C 1016.1 hPa South 3.5 km/h 5.6 km/h 87 % 0 mm
22:31 3.7 °C 1.7 °C 1016.1 hPa South 3.2 km/h 7.4 km/h 87 % 0 mm
22:36 3.7 °C 1.7 °C 1016.1 hPa SW 1.9 km/h 5.6 km/h 87 % 0 mm
22:41 3.7 °C 1.7 °C 1016.1 hPa SW 2.1 km/h 5.6 km/h 87 % 0 mm
22:46 3.6 °C 1.7 °C 1016.1 hPa SW 1.6 km/h 3.7 km/h 87 % 0 mm
22:51 3.6 °C 1.7 °C 1016.1 hPa SSW 3.5 km/h 5.6 km/h 87 % 0 mm
22:56 3.6 °C 1.6 °C 1016.1 hPa SW 1 km/h 1.9 km/h 87 % 0 mm
23:01 3.6 °C 1.4 °C 1015.8 hPa SSW 1 km/h 1.9 km/h 86 % 0 mm
23:06 3.6 °C 1.4 °C 1015.8 hPa Calm   3.7 km/h 86 % 0 mm
23:11 3.6 °C 1.4 °C 1015.8 hPa SSW 1 km/h 1.9 km/h 86 % 0 mm
23:16 3.6 °C 1.4 °C 1015.8 hPa SSW 0.5 km/h 1.9 km/h 86 % 0 mm
23:21 3.6 °C 1.4 °C 1015.8 hPa SSW 0.5 km/h 3.2 km/h 86 % 0 mm
23:26 3.6 °C 1.4 °C 1015.8 hPa Calm   1.9 km/h 86 % 0 mm
23:28 3.5 °C 1.4 °C 1015.8 hPa SSW 0.2 km/h 1.9 km/h 86 % 0 mm
23:33 3.5 °C 1.4 °C 1015.8 hPa Calm     86 % 0 mm
23:38 3.4 °C 1.3 °C 1015.8 hPa SSW 0.5 km/h 1.9 km/h 86 % 0 mm
23:43 3.4 °C 1.3 °C 1015.8 hPa SSW 0.2 km/h 1.9 km/h 86 % 0 mm
23:48 3.4 °C 1.3 °C 1015.8 hPa SSW 1.1 km/h 1.9 km/h 86 % 0 mm
23:53 3.3 °C 1.2 °C 1015.8 hPa Calm     86 % 0 mm
23:58 3.3 °C 1.2 °C 1015.8 hPa Calm     86 % 0 mm
Crab Meadow Weather
Compliments of Weather Underground - 3 mb

Script developed by  Jim McMurry - jmcmurry@mwt.net Adapted for the template by  Wim van der Kuil - Leuven-Template.eu

Weather Terms: Outlook - A hazardous weather outlook is issued daily to indicate that a hazardous weather or hydrologic event may occur in the next several days. The outlook will include information about potential severe thunderstorms , heavy rain or flooding, winter weather, extremes of heat or cold, etc., that may develop over the next 7 days with an emphasis on the first 24 hours of the forecast. It is intended to provide information to those who need considerable lead time to prepare for the event.